Location: Владивосток
(43.1151°N, 131.8856°E)
Time: 08:18:59
(UTC+10:00)

SEEDS - Visible Passes

Search period start: 25 April 2024 00:00
Search period end: 05 May 2024 00:00
Orbit: 554 x 564 km, 97.7° (Epoch: 24 April)

Date Brightness Start Highest point End Pass type
(mag) Time Alt. Az. Time Alt. Az. Time Alt. Az.
25 Apr ? 04:32:54 10° NE 04:36:25 29° E 04:39:54 10° SSE visible
26 Apr ? 04:31:25 10° NE 04:34:54 28° E 04:38:21 10° SSE visible
27 Apr ? 04:29:55 10° NE 04:33:21 27° E 04:36:45 10° SSE visible
28 Apr ? 04:28:23 10° NE 04:31:46 26° E 04:35:07 10° SSE visible
29 Apr ? 04:26:48 10° NE 04:30:09 25° E 04:33:27 10° SSE visible
30 Apr ? 04:25:13 10° NE 04:28:30 24° E 04:31:45 10° SSE visible
01 May ? 04:23:36 10° NE 04:26:48 23° E 04:30:01 10° SSE visible
02 May ? 04:21:57 10° NE 04:25:06 22° E 04:28:14 10° SSE visible
03 May ? 04:20:16 10° NE 04:23:21 21° E 04:26:25 10° SE visible
04 May ? 04:18:34 10° NE 04:21:35 20° E 04:24:34 10° SE visible
